Regional Weather Roundup
Issued by NWS Northern Indiana

Home | Current Version | Previous Version | Graphics & Text | Print | Product List | Glossary On
Versions: 1 2 3 4 5 6 7 8 9 10 11 12 13 14 15 16 17 18 19 20 21 22 23 24 25 26 27 28 29 30 31 32 33 34 35 36 37 38 39 40 41 42 43 44 45 46 47 48 49 50
000
ASUS43 KIWX 190900
RWRIWX

KIWX WEATHER ROUNDUP
NATIONAL WEATHER SERVICE NORTHERN INDIANA
500 AM EDT SUN APR 19 2015

NOTE: "FAIR" INDICATES FEW OR NO CLOUDS BELOW 12,000 FEET WITH NO
SIGNIFICANT WEATHER AND/OR OBSTRUCTIONS TO VISIBILITY.

* THESE STATIONS ARE NOT UNDER NWS QUALITY CONTROL. THEY ALSO MAY NOT
  REPORT WEATHER SUCH AS PRECIPITATION OR FOG.

INZ001>027-191000-
NORTHERN INDIANA

CITY           SKY/WX    TMP DP  RH WIND       PRES   REMARKS
SOUTH BEND     MOCLDY    55  28  35 E14       29.96F
GOSHEN         MOCLDY    51  32  48 E15       29.95F
ANGOLA*        CLEAR     50  28  43 E16       30.00S
FORT WAYNE     MOCLDY    49  36  61 E14       29.97F

$$
INZ028>050-191000-
CENTRAL INDIANA

CITY           SKY/WX    TMP DP  RH WIND       PRES   REMARKS
LAFAYETTE      CLOUDY    55  40  56 E13       29.87F
KOKOMO*        MOCLDY    52  39  62 E14       29.91F
MUNCIE*        CLOUDY    52  39  61 E10       29.91F
INDIANAPOLIS   CLOUDY    61  47  59 E13       29.84F

$$
MIZ043>046-050>051-056>058-064>065-071>073-077>080-191000-
SOUTHWEST LOWER MICHIGAN

CITY           SKY/WX    TMP DP  RH WIND       PRES   REMARKS
BATTLE CREEK   MOCLDY    48  29  47 E9        30.02F
BENTON HARBOR  CLOUDY    53  27  36 E15G23    29.94F
COLDWATER*     CLOUDY    51  24  35 E16G22    30.00F
HILLSDALE*     PTCLDY    48  29  47 E16G22    30.01F
HOLLAND        CLOUDY    48  31  51 E12       30.01F
GRAND RAPIDS   MOCLDY    44  29  55 E18       30.03F
KALAMAZOO      MOCLDY    49  27  42 E6        30.01F
STURGIS*       CLOUDY    52  28  40 CALM      29.98F
THREE RIVERS*  FAIR      51  29  43 E8        30.00S

$$
OHZ001>008-015>018-024>025-191000-
NORTHWEST OHIO

CITY           SKY/WX    TMP DP  RH WIND       PRES   REMARKS
DEFIANCE       CLOUDY    50  32  50 NE8       30.01S
FINDLAY        CLOUDY    50  35  56 E14       29.98F
TOLEDO EXPRESS PTCLDY    48  32  53 E22G29    30.02F
TOLEDO METCALF PTCLDY    48  33  56 E13G21    30.05F
LIMA           MOCLDY    50  38  63 E12       29.97F

$$
AND FOR LAKE MICHIGAN COASTAL AND OPEN LAKE BUOY OBSERVATIONS

STATION/POSITION TEMP    WIND        PRES    VSBY  WAVE
                 AIR SEA DIR/SP/G                  HT/PER
                 (F)     (DEG/KT/KT) (MB)    (MI)  (FT/S)
CALUMET HARBOR    52      90/  5/  9   N/A
MICHIGAN CITY     56      90/ 12/ 17   N/A
BURNS HARBOR      56     120/ 17/ 23 1013.2S
SAINT JOSEPH      57      70/  4/ 10 1014.9F
MICHIGAN CITY     53 45  120/ 12/ 16   N/A           3/ 5

$$
&&


USA.gov is the U.S. government's official web portal to all federal, state and local government web resources and services.